,,,PA_Meas_PMT16A,,PR_Meas_QMR101_102,,RH_Meas_QMH101,,SR_Meas_QMS101,,TA_Meas_QMH101,,GenWind,,GenWind,
date,time,status,PA,status,PR,status,RH,status,SR,status,TA,status,DirAvg,status,SpdAvg,
2012-07-26, 00:00:04,VALID,1010.5,VALID,0,VALID,104,VALID,0,VALID,23.1679,VALID,86,VALID,0.605859,
2012-07-26, 00:01:04,VALID,1010.47,VALID,0,VALID,104,VALID,0,VALID,23.1679,VALID,90,VALID,1.1582,
2012-07-26, 00:02:04,VALID,1010.46,VALID,0,VALID,104,VALID,0,VALID,23.1679,VALID,77,VALID,1.05313,
2012-07-26, 00:03:04,VALID,1010.45,VALID,0,VALID,104,VALID,0,VALID,23.1892,VALID,99,VALID,1.08047,
2012-07-26, 00:04:04,VALID,1010.43,VALID,0,VALID,104,VALID,0,VALID,23.1874,VALID,87,VALID,0.833594,
2012-07-26, 00:05:04,VALID,1010.41,VALID,0,VALID,104,VALID,0,VALID,23.1679,VALID,80,VALID,1.53789,
2012-07-26, 00:06:04,VALID,1010.41,VALID,0,VALID,104,VALID,0,VALID,23.2087,VALID,77,VALID,0.826563,
2012-07-26, 00:07:04,VALID,1010.42,VALID,0,VALID,104,VALID,0,VALID,23.1892,VALID,62,VALID,0.764453,
2012-07-26, 00:08:04,VALID,1010.4,VALID,0,VALID,104,VALID,0,VALID,23.1892,VALID,62,VALID,0.796875,
2012-07-26, 00:09:04,VALID,1010.4,VALID,0,VALID,104,VALID,0,VALID,23.1697,VALID,72,VALID,0.818359,
2012-07-26, 00:10:04,VALID,1010.38,VALID,0,VALID,104,VALID,0,VALID,23.1502,VALID,63,VALID,1.1418,
2012-07-26, 00:11:04,VALID,1010.4,VALID,0,VALID,104,VALID,0,VALID,23.1095,VALID,55,VALID,1.34766,
2012-07-26, 00:12:04,VALID,1010.38,VALID,0,VALID,104,VALID,0,VALID,23.1307,VALID,49,VALID,1.02109,
2012-07-26, 00:13:04,VALID,1010.36,VALID,0,VALID,104,VALID,0,VALID,23.1307,VALID,61,VALID,0.886328,
2012-07-26, 00:14:04,VALID,1010.33,VALID,0,VALID,104,VALID,0,VALID,23.1095,VALID,63,VALID,0.674219,
2012-07-26, 00:15:04,VALID,1010.32,VALID,0,VALID,104,VALID,0,VALID,23.0705,VALID,63,VALID,0.542188,
2012-07-26, 00:16:04,VALID,1010.32,VALID,0,VALID,104,VALID,0,VALID,23.0705,VALID,64,VALID,0.680078,
2012-07-26, 00:17:04,VALID,1010.29,VALID,0,VALID,104,VALID,0,VALID,23.0918,VALID,63,VALID,0.523047,
2012-07-26, 00:18:04,VALID,1010.29,VALID,0,VALID,104,VALID,0,VALID,23.0723,VALID,63,VALID,0.649219,
2012-07-26, 00:19:04,VALID,1010.31,VALID,0,VALID,104,VALID,0,VALID,23.0511,VALID,79,VALID,1.07109,
2012-07-26, 00:20:04,VALID,1010.29,VALID,0,VALID,104,VALID,0,VALID,23.0316,VALID,76,VALID,0.54375,
2012-07-26, 00:21:04,VALID,1010.24,VALID,0,VALID,104,VALID,0,VALID,23.0333,VALID,76,VALID,0.639453,
2012-07-26, 00:22:04,VALID,1010.26,VALID,0,VALID,104,VALID,0,VALID,23.0528,VALID,54,VALID,0.882813,
2012-07-26, 00:23:04,VALID,1010.28,VALID,0,VALID,104,VALID,0,VALID,23.0333,VALID,72,VALID,1.00547,
2012-07-26, 00:24:04,VALID,1010.28,VALID,0,VALID,104,VALID,0,VALID,23.0333,VALID,92,VALID,0.791016,
2012-07-26, 00:25:04,VALID,1010.28,VALID,0,VALID,104,VALID,0,VALID,23.0121,VALID,76,VALID,1.1125,
2012-07-26, 00:26:04,VALID,1010.27,VALID,0,VALID,104,VALID,0,VALID,23.0138,VALID,73,VALID,1.1375,
2012-07-26, 00:27:04,VALID,1010.25,VALID,0,VALID,104,VALID,0,VALID,22.9926,VALID,63,VALID,0.730469,
2012-07-26, 00:28:04,VALID,1010.23,VALID,0,VALID,104,VALID,0,VALID,22.9943,VALID,61,VALID,0.600391,
2012-07-26, 00:29:04,VALID,1010.2,VALID,0,VALID,104,VALID,0,VALID,22.9731,VALID,61,VALID,0.278906,
2012-07-26, 00:30:04,VALID,1010.18,VALID,0,VALID,104,VALID,0,VALID,22.9943,VALID,61,VALID,0.0835937,
2012-07-26, 00:31:04,VALID,1010.17,VALID,0,VALID,104,VALID,0,VALID,22.9943,VALID,61,VALID,0,
2012-07-26, 00:32:04,VALID,1010.16,VALID,0,VALID,104,VALID,0,VALID,22.9943,VALID,79,VALID,1.06367,
2012-07-26, 00:33:04,VALID,1010.16,VALID,0,VALID,104,VALID,0,VALID,22.9943,VALID,82,VALID,0.632031,
2012-07-26, 00:34:04,VALID,1010.19,VALID,0,VALID,104,VALID,0,VALID,22.9749,VALID,89,VALID,1.3582,
2012-07-26, 00:35:04,VALID,1010.17,VALID,0,VALID,104,VALID,0,VALID,22.9536,VALID,76,VALID,1.15781,
2012-07-26, 00:36:04,VALID,1010.12,VALID,0,VALID,104,VALID,0,VALID,22.9342,VALID,86,VALID,1.38242,
2012-07-26, 00:37:04,VALID,1010.13,VALID,0,VALID,104,VALID,0,VALID,22.9342,VALID,71,VALID,0.836719,
2012-07-26, 00:38:04,VALID,1010.12,VALID,0,VALID,104,VALID,0,VALID,22.9554,VALID,77,VALID,1.02188,
2012-07-26, 00:39:04,VALID,1010.12,VALID,0,VALID,104,VALID,0,VALID,22.9147,VALID,65,VALID,1.26719,
2012-07-26, 00:40:04,VALID,1010.11,VALID,0,VALID,104,VALID,0,VALID,22.9147,VALID,59,VALID,0.762109,
2012-07-26, 00:41:04,VALID,1010.08,VALID,0,VALID,104,VALID,0,VALID,22.8952,VALID,50,VALID,1.24336,
2012-07-26, 00:42:04,VALID,1010.1,VALID,0,VALID,104,VALID,0,VALID,22.9164,VALID,38,VALID,0.569531,
2012-07-26, 00:43:04,VALID,1010.1,VALID,0,VALID,104,VALID,0,VALID,22.9359,VALID,70,VALID,1.35352,
2012-07-26, 00:44:04,VALID,1010.08,VALID,0,VALID,104,VALID,0,VALID,22.9147,VALID,65,VALID,1.08008,
2012-07-26, 00:45:04,VALID,1010.06,VALID,0,VALID,104,VALID,0,VALID,22.8952,VALID,47,VALID,0.496094,
2012-07-26, 00:46:04,VALID,1010.07,VALID,0,VALID,104,VALID,0,VALID,22.8952,VALID,41,VALID,0.6875,
2012-07-26, 00:47:04,VALID,1010.06,VALID,0,VALID,104,VALID,0,VALID,22.8952,VALID,12,VALID,0.359766,
2012-07-26, 00:48:04,VALID,1010.05,VALID,0,VALID,104,VALID,0,VALID,22.9359,VALID,12,VALID,0,
2012-07-26, 00:49:04,VALID,1010.05,VALID,0,VALID,104,VALID,0,VALID,22.9164,VALID,14,VALID,0.420312,
2012-07-26, 00:50:04,VALID,1010.01,VALID,0,VALID,104,VALID,0,VALID,22.9164,VALID,20,VALID,0.0839844,
2012-07-26, 00:51:04,VALID,1010.01,VALID,0,VALID,104,VALID,0,VALID,22.9359,VALID,23,VALID,0.505078,
2012-07-26, 00:52:04,VALID,1010,VALID,0,VALID,104,VALID,0,VALID,22.8952,VALID,79,VALID,0.371875,
2012-07-26, 00:53:04,VALID,1010.01,VALID,0,VALID,104,VALID,0,VALID,22.9359,VALID,77,VALID,0.0898438,
2012-07-26, 00:54:04,VALID,1010.02,VALID,0,VALID,104,VALID,0,VALID,22.9147,VALID,49,VALID,0.317187,
2012-07-26, 00:55:04,VALID,1010,VALID,0,VALID,104,VALID,0,VALID,22.9164,VALID,49,VALID,0.419531,
2012-07-26, 00:56:04,VALID,1010,VALID,0,VALID,104,VALID,0,VALID,22.9359,VALID,46,VALID,0.313281,
2012-07-26, 00:57:04,VALID,1010.02,VALID,0,VALID,104,VALID,0,VALID,22.9147,VALID,46,VALID,0.441797,
2012-07-26, 00:58:04,VALID,1010.05,VALID,0,VALID,104,VALID,0,VALID,22.9359,VALID,46,VALID,0.334375,
2012-07-26, 00:59:04,VALID,1010.04,VALID,0,VALID,104,VALID,0.112112,VALID,22.9147,VALID,46,VALID,0.448047,
2012-07-26, 01:00:04,VALID,1010.05,VALID,0,VALID,104,VALID,0,VALID,22.8952,VALID,50,VALID,0.654297,
2012-07-26, 01:01:04,VALID,1010.07,VALID,0,VALID,104,VALID,0,VALID,22.9147,VALID,52,VALID,0.438672,
2012-07-26, 01:02:04,VALID,1010,VALID,0,VALID,104,VALID,0,VALID,22.9147,VALID,52,VALID,0.244922,
2012-07-26, 01:03:04,VALID,1010,VALID,0,VALID,104,VALID,0,VALID,22.9359,VALID,52,VALID,0.00195313,
2012-07-26, 01:04:04,VALID,1009.99,VALID,0,VALID,104,VALID,0,VALID,22.9147,VALID,52,VALID,0,
2012-07-26, 01:05:04,VALID,1009.99,VALID,0,VALID,104,VALID,0,VALID,22.9147,VALID,52,VALID,0.147656,
2012-07-26, 01:06:04,VALID,1009.99,VALID,0,VALID,104,VALID,0,VALID,22.9359,VALID,52,VALID,0,
2012-07-26, 01:07:04,VALID,1009.98,VALID,0,VALID,104,VALID,0,VALID,22.9359,VALID,52,VALID,0,
2012-07-26, 01:08:04,VALID,1010.02,VALID,0,VALID,104,VALID,0,VALID,22.9164,VALID,52,VALID,0,
2012-07-26, 01:09:04,VALID,1009.98,VALID,0,VALID,104,VALID,0,VALID,22.9359,VALID,52,VALID,0.203125,
2012-07-26, 01:10:04,VALID,1009.96,VALID,0,VALID,104,VALID,0,VALID,22.9359,VALID,43,VALID,0.387891,
2012-07-26, 01:11:04,VALID,1009.96,VALID,0,VALID,104,VALID,0,VALID,22.9359,VALID,43,VALID,0.117578,
2012-07-26, 01:12:04,VALID,1009.96,VALID,0,VALID,104,VALID,0,VALID,22.9554,VALID,43,VALID,0.422266,
2012-07-26, 01:13:04,VALID,1009.96,VALID,0,VALID,104,VALID,0,VALID,22.9359,VALID,348,VALID,0.708203,
2012-07-26, 01:14:04,VALID,1009.93,VALID,0,VALID,104,VALID,0,VALID,22.8952,VALID,348,VALID,0.301172,
2012-07-26, 01:15:04,VALID,1009.98,VALID,0,VALID,104,VALID,0.112112,VALID,22.9129,VALID,348,VALID,0,
2012-07-26, 01:16:04,VALID,1009.97,VALID,0,VALID,104,VALID,0,VALID,22.9342,VALID,348,VALID,0,
2012-07-26, 01:17:04,VALID,1009.99,VALID,0,VALID,104,VALID,0,VALID,22.9147,VALID,348,VALID,0,
2012-07-26, 01:18:04,VALID,1009.99,VALID,0,VALID,104,VALID,0.112112,VALID,22.9129,VALID,348,VALID,0.257813,
2012-07-26, 01:19:04,VALID,1009.96,VALID,0,VALID,104,VALID,0,VALID,22.9129,VALID,348,VALID,0.00351562,
2012-07-26, 01:20:04,VALID,1009.95,VALID,0,VALID,104,VALID,0.112112,VALID,22.9129,VALID,348,VALID,0.0964844,
2012-07-26, 01:21:04,VALID,1009.96,VALID,0,VALID,104,VALID,0.112112,VALID,22.8935,VALID,348,VALID,0.293359,
2012-07-26, 01:22:04,VALID,1009.95,VALID,0,VALID,104,VALID,0.112112,VALID,22.9147,VALID,348,VALID,0.0289063,
2012-07-26, 01:23:04,VALID,1009.93,VALID,0,VALID,104,VALID,0.112112,VALID,22.8935,VALID,348,VALID,0.254297,
2012-07-26, 01:24:04,VALID,1009.92,VALID,0,VALID,104,VALID,0.112112,VALID,22.8935,VALID,348,VALID,0.108203,
2012-07-26, 01:25:04,VALID,1009.9,VALID,0,VALID,104,VALID,0,VALID,22.8935,VALID,350,VALID,0.240625,
2012-07-26, 01:26:04,VALID,1009.9,VALID,0,VALID,104,VALID,0.112112,VALID,22.9342,VALID,350,VALID,0,
2012-07-26, 01:27:04,VALID,1009.9,VALID,0,VALID,104,VALID,0,VALID,22.9129,VALID,352,VALID,0.150781,
2012-07-26, 01:28:04,VALID,1009.9,VALID,0,VALID,104,VALID,0.112112,VALID,22.8935,VALID,354,VALID,0.426953,
2012-07-26, 01:29:04,VALID,1009.9,VALID,0,VALID,104,VALID,0,VALID,22.9147,VALID,354,VALID,0.125781,
2012-07-26, 01:30:04,VALID,1009.91,VALID,0,VALID,104,VALID,0,VALID,22.9342,VALID,354,VALID,0.416406,
2012-07-26, 01:31:04,VALID,1009.93,VALID,0,VALID,104,VALID,0.112112,VALID,22.9129,VALID,357,VALID,0.500781,
2012-07-26, 01:32:04,VALID,1009.93,VALID,0,VALID,104,VALID,0.112112,VALID,22.9129,VALID,42,VALID,0.692969,
2012-07-26, 01:33:04,VALID,1009.94,VALID,0,VALID,104,VALID,0.112112,VALID,22.9129,VALID,75,VALID,0.816016,
2012-07-26, 01:34:04,VALID,1009.97,VALID,0,VALID,104,VALID,0.112112,VALID,22.9342,VALID,60,VALID,0.335938,
2012-07-26, 01:35:04,VALID,1009.97,VALID,0,VALID,104,VALID,0,VALID,22.9536,VALID,60,VALID,0.375781,
2012-07-26, 01:36:04,VALID,1009.95,VALID,0,VALID,104,VALID,0,VALID,22.9731,VALID,60,VALID,0.532422,
2012-07-26, 01:37:04,VALID,1009.91,VALID,0,VALID,104,VALID,0.112112,VALID,22.9731,VALID,59,VALID,0.862109,
2012-07-26, 01:38:04,VALID,1009.93,VALID,0,VALID,104,VALID,0.112112,VALID,22.9731,VALID,60,VALID,0.600391,
2012-07-26, 01:39:04,VALID,1009.89,VALID,0,VALID,104,VALID,0.112112,VALID,22.9536,VALID,62,VALID,0.575,
2012-07-26, 01:40:04,VALID,1009.92,VALID,0,VALID,104,VALID,0,VALID,22.9324,VALID,62,VALID,0.369922,
2012-07-26, 01:41:04,VALID,1009.91,VALID,0,VALID,104,VALID,0.112112,VALID,22.9342,VALID,62,VALID,0.566406,
2012-07-26, 01:42:04,VALID,1009.88,VALID,0,VALID,104,VALID,0,VALID,22.9342,VALID,55,VALID,0.945703,
2012-07-26, 01:43:04,VALID,1009.87,VALID,0,VALID,104,VALID,0,VALID,22.9147,VALID,49,VALID,0.494531,
2012-07-26, 01:44:04,VALID,1009.82,VALID,0,VALID,104,VALID,0,VALID,22.9147,VALID,88,VALID,1.31055,
2012-07-26, 01:45:04,VALID,1009.84,VALID,0,VALID,104,VALID,0,VALID,22.9147,VALID,46,VALID,0.847266,
2012-07-26, 01:46:04,VALID,1009.82,VALID,0,VALID,104,VALID,0.112112,VALID,22.874,VALID,30,VALID,0.826172,
2012-07-26, 01:47:04,VALID,1009.85,VALID,0,VALID,104,VALID,0,VALID,22.8757,VALID,49,VALID,0.666406,
2012-07-26, 01:48:04,VALID,1009.85,VALID,0,VALID,104,VALID,0,VALID,22.8757,VALID,51,VALID,0.614453,
2012-07-26, 01:49:04,VALID,1009.88,VALID,0,VALID,104,VALID,0.112112,VALID,22.8757,VALID,51,VALID,0,
2012-07-26, 01:50:04,VALID,1009.88,VALID,0,VALID,104,VALID,0.112112,VALID,22.8969,VALID,66,VALID,0.964063,
2012-07-26, 01:51:04,VALID,1009.91,VALID,0,VALID,104,VALID,0,VALID,22.8757,VALID,42,VALID,0.745703,
2012-07-26, 01:52:04,VALID,1009.93,VALID,0,VALID,104,VALID,0,VALID,22.8757,VALID,25,VALID,0.9625,
2012-07-26, 01:53:04,VALID,1009.91,VALID,0,VALID,104,VALID,0.112112,VALID,22.8562,VALID,38,VALID,0.776563,
2012-07-26, 01:54:04,VALID,1009.93,VALID,0,VALID,104,VALID,0,VALID,22.8562,VALID,25,VALID,0.289063,
2012-07-26, 01:55:04,VALID,1009.93,VALID,0,VALID,104,VALID,0.112112,VALID,22.8545,VALID,25,VALID,0.485938,
2012-07-26, 01:56:04,VALID,1009.95,VALID,0,VALID,104,VALID,0.112112,VALID,22.8562,VALID,27,VALID,0.642187,
2012-07-26, 01:57:04,VALID,1009.93,VALID,0,VALID,104,VALID,0,VALID,22.8562,VALID,67,VALID,0.640625,
2012-07-26, 01:58:04,VALID,1009.94,VALID,0,VALID,104,VALID,0,VALID,22.8562,VALID,66,VALID,0.615625,
2012-07-26, 01:59:04,VALID,1009.93,VALID,0,VALID,104,VALID,0,VALID,22.835,VALID,54,VALID,0.847266,
2012-07-26, 02:00:04,VALID,1009.93,VALID,0,VALID,104,VALID,0,VALID,22.8562,VALID,50,VALID,0.85625,
2012-07-26, 02:01:04,VALID,1009.93,VALID,0,VALID,104,VALID,0,VALID,22.835,VALID,27,VALID,0.589844,
2012-07-26, 02:02:04,VALID,1009.95,VALID,0,VALID,104,VALID,0.112112,VALID,22.835,VALID,31,VALID,0.477344,
2012-07-26, 02:03:04,VALID,1009.95,VALID,0,VALID,104,VALID,0,VALID,22.8562,VALID,56,VALID,0.471484,
2012-07-26, 02:04:04,VALID,1009.94,VALID,0,VALID,104,VALID,0.112112,VALID,22.835,VALID,55,VALID,0,
2012-07-26, 02:05:04,VALID,1009.96,VALID,0,VALID,104,VALID,0.112112,VALID,22.8757,VALID,55,VALID,0.445313,
2012-07-26, 02:06:04,VALID,1009.95,VALID,0,VALID,104,VALID,0,VALID,22.8757,VALID,56,VALID,0.137891,
2012-07-26, 02:07:04,VALID,1009.95,VALID,0,VALID,104,VALID,0,VALID,22.8952,VALID,58,VALID,0.791016,
2012-07-26, 02:08:04,VALID,1009.97,VALID,0,VALID,104,VALID,0.112112,VALID,22.874,VALID,86,VALID,1.2457,
2012-07-26, 02:09:04,VALID,1009.96,VALID,0,VALID,104,VALID,0.112112,VALID,22.9147,VALID,89,VALID,1.42578,
2012-07-26, 02:10:04,VALID,1009.97,VALID,0,VALID,104,VALID,0,VALID,22.9147,VALID,70,VALID,0.894531,
2012-07-26, 02:11:04,VALID,1009.97,VALID,0,VALID,104,VALID,0.112112,VALID,22.9147,VALID,90,VALID,1.36523,
2012-07-26, 02:12:04,VALID,1009.94,VALID,0,VALID,104,VALID,0.112112,VALID,22.8935,VALID,86,VALID,1.15937,
2012-07-26, 02:13:04,VALID,1009.99,VALID,0,VALID,104,VALID,0.112112,VALID,22.9342,VALID,83,VALID,1.48164,
2012-07-26, 02:14:04,VALID,1009.96,VALID,0,VALID,104,VALID,0,VALID,22.9342,VALID,82,VALID,2.09063,
2012-07-26, 02:15:04,VALID,1009.96,VALID,0,VALID,104,VALID,0,VALID,22.9359,VALID,79,VALID,1.62891,
2012-07-26, 02:16:04,VALID,1009.97,VALID,0,VALID,104,VALID,0,VALID,22.9359,VALID,68,VALID,0.83125,
2012-07-26, 02:17:04,VALID,1009.97,VALID,0,VALID,104,VALID,0,VALID,22.9554,VALID,74,VALID,1.36875,
2012-07-26, 02:18:04,VALID,1010,VALID,0,VALID,104,VALID,0,VALID,22.9342,VALID,78,VALID,0.571094,
2012-07-26, 02:19:04,VALID,1010.02,VALID,0,VALID,104,VALID,0,VALID,22.9536,VALID,80,VALID,0.926953,
2012-07-26, 02:20:04,VALID,1010.02,VALID,0,VALID,104,VALID,0,VALID,22.9731,VALID,87,VALID,0.785937,
2012-07-26, 02:21:04,VALID,1009.99,VALID,0,VALID,104,VALID,0,VALID,22.9749,VALID,88,VALID,1.48945,
2012-07-26, 02:22:04,VALID,1010,VALID,0,VALID,104,VALID,0,VALID,22.9943,VALID,93,VALID,0.795313,
2012-07-26, 02:23:04,VALID,1010.02,VALID,0,VALID,104,VALID,0,VALID,22.9943,VALID,82,VALID,1.08242,
2012-07-26, 02:24:04,VALID,1010.03,VALID,0,VALID,104,VALID,0,VALID,22.9926,VALID,89,VALID,1.52461,
2012-07-26, 02:25:04,VALID,1010.04,VALID,0,VALID,104,VALID,0,VALID,22.9731,VALID,82,VALID,1.06797,
2012-07-26, 02:26:04,VALID,1010.04,VALID,0,VALID,104,VALID,0,VALID,23.0138,VALID,95,VALID,0.571875,
2012-07-26, 02:27:04,VALID,1010.04,VALID,0,VALID,104,VALID,0,VALID,23.0121,VALID,99,VALID,1.42109,
2012-07-26, 02:28:04,VALID,1010.09,VALID,0,VALID,104,VALID,0,VALID,23.0333,VALID,89,VALID,0.735156,
2012-07-26, 02:29:04,VALID,1010.07,VALID,0,VALID,104,VALID,0,VALID,23.0333,VALID,104,VALID,0.865234,
2012-07-26, 02:30:04,VALID,1010.08,VALID,0,VALID,104,VALID,0,VALID,22.9909,VALID,100,VALID,1.09492,
2012-07-26, 02:31:04,VALID,1010.09,VALID,0,VALID,104,VALID,0,VALID,23.0316,VALID,94,VALID,0.855469,
2012-07-26, 02:32:04,VALID,1010.1,VALID,0,VALID,104,VALID,0.112112,VALID,23.0316,VALID,89,VALID,1.44805,
2012-07-26, 02:33:04,VALID,1010.11,VALID,0,VALID,104,VALID,0.112112,VALID,23.0316,VALID,83,VALID,0.773047,
2012-07-26, 02:34:04,VALID,1010.14,VALID,0,VALID,104,VALID,0.112112,VALID,23.0493,VALID,110,VALID,1.1918,
2012-07-26, 02:35:04,VALID,1010.14,VALID,0,VALID,104,VALID,0,VALID,23.0511,VALID,104,VALID,1.14805,
2012-07-26, 02:36:04,VALID,1010.16,VALID,0,VALID,104,VALID,0,VALID,23.0705,VALID,93,VALID,1.47539,
2012-07-26, 02:37:04,VALID,1010.17,VALID,0,VALID,104,VALID,0.112112,VALID,23.0493,VALID,96,VALID,0.973047,
2012-07-26, 02:38:04,VALID,1010.18,VALID,0,VALID,104,VALID,0.112112,VALID,23.0705,VALID,110,VALID,1.57617,
2012-07-26, 02:39:04,VALID,1010.19,VALID,0,VALID,104,VALID,0.112112,VALID,23.09,VALID,78,VALID,1.26719,
2012-07-26, 02:40:04,VALID,1010.22,VALID,0,VALID,104,VALID,0,VALID,23.0493,VALID,102,VALID,1.47852,
2012-07-26, 02:41:04,VALID,1010.25,VALID,0,VALID,104,VALID,0.112112,VALID,23.09,VALID,107,VALID,0.999219,
2012-07-26, 02:42:04,VALID,1010.21,VALID,0,VALID,104,VALID,0.112112,VALID,23.09,VALID,86,VALID,0.801562,
2012-07-26, 02:43:04,VALID,1010.24,VALID,0,VALID,104,VALID,0,VALID,23.1095,VALID,104,VALID,1.06094,
2012-07-26, 02:44:04,VALID,1010.22,VALID,0,VALID,104,VALID,0.112112,VALID,23.1077,VALID,89,VALID,0.767969,
2012-07-26, 02:45:04,VALID,1010.25,VALID,0,VALID,104,VALID,0.112112,VALID,23.129,VALID,99,VALID,1.18242,
2012-07-26, 02:46:04,VALID,1010.26,VALID,0,VALID,104,VALID,0,VALID,23.1095,VALID,104,VALID,1.95742,
2012-07-26, 02:47:04,VALID,1010.3,VALID,0,VALID,104,VALID,0,VALID,23.0883,VALID,90,VALID,1.30977,
2012-07-26, 02:48:04,VALID,1010.28,VALID,0,VALID,104,VALID,0.112112,VALID,23.1077,VALID,83,VALID,1.43594,
2012-07-26, 02:49:04,VALID,1010.28,VALID,0,VALID,104,VALID,0.112112,VALID,23.1272,VALID,73,VALID,1.65117,
2012-07-26, 02:50:04,VALID,1010.29,VALID,0,VALID,104,VALID,0,VALID,23.1095,VALID,86,VALID,1.7957,
2012-07-26, 02:51:04,VALID,1010.28,VALID,0,VALID,104,VALID,0.112112,VALID,23.1272,VALID,103,VALID,1.20234,
2012-07-26, 02:52:04,VALID,1010.29,VALID,0,VALID,104,VALID,0.112112,VALID,23.1485,VALID,85,VALID,1.29531,
2012-07-26, 02:53:04,VALID,1010.32,VALID,0,VALID,104,VALID,0.112112,VALID,23.1272,VALID,105,VALID,1.71445,
2012-07-26, 02:54:04,VALID,1010.33,VALID,0,VALID,104,VALID,0.112112,VALID,23.1467,VALID,75,VALID,1.27891,
2012-07-26, 02:55:04,VALID,1010.29,VALID,0,VALID,104,VALID,0.112112,VALID,23.1467,VALID,87,VALID,1.23789,
2012-07-26, 02:56:04,VALID,1010.34,VALID,0,VALID,104,VALID,0.112112,VALID,23.1467,VALID,82,VALID,2.07969,
2012-07-26, 02:57:04,VALID,1010.35,VALID,0,VALID,104,VALID,0.112112,VALID,23.1272,VALID,81,VALID,0.910547,
2012-07-26, 02:58:04,VALID,1010.34,VALID,0,VALID,104,VALID,0.112112,VALID,23.1485,VALID,67,VALID,1.27656,
2012-07-26, 02:59:04,VALID,1010.33,VALID,0,VALID,104,VALID,0.112112,VALID,23.1272,VALID,80,VALID,2.18203,
2012-07-26, 03:00:04,VALID,1010.36,VALID,0,VALID,104,VALID,0,VALID,23.129,VALID,107,VALID,1.8957,
2012-07-26, 03:01:04,VALID,1010.36,VALID,0,VALID,104,VALID,0,VALID,23.1697,VALID,65,VALID,1.65977,
2012-07-26, 03:02:04,VALID,1010.35,VALID,0,VALID,104,VALID,0,VALID,23.1502,VALID,77,VALID,1.76328,
2012-07-26, 03:03:04,VALID,1010.39,VALID,0,VALID,104,VALID,0,VALID,23.1502,VALID,74,VALID,1.55977,
2012-07-26, 03:04:04,VALID,1010.38,VALID,0,VALID,104,VALID,0,VALID,23.1502,VALID,96,VALID,1.36836,
2012-07-26, 03:05:04,VALID,1010.41,VALID,0,VALID,104,VALID,0,VALID,23.129,VALID,88,VALID,2.23672,
2012-07-26, 03:06:04,VALID,1010.42,VALID,0,VALID,104,VALID,0,VALID,23.1697,VALID,90,VALID,0.944141,
2012-07-26, 03:07:04,VALID,1010.43,VALID,0,VALID,104,VALID,0,VALID,23.1697,VALID,72,VALID,1.92773,
2012-07-26, 03:08:04,VALID,1010.44,VALID,0,VALID,104,VALID,0,VALID,23.129,VALID,86,VALID,1.91719,
2012-07-26, 03:09:04,VALID,1010.45,VALID,0,VALID,104,VALID,0,VALID,23.1485,VALID,86,VALID,1.6543,
2012-07-26, 03:10:04,VALID,1010.46,VALID,0,VALID,104,VALID,0,VALID,23.1485,VALID,100,VALID,0.647266,
2012-07-26, 03:11:04,VALID,1010.48,VALID,0,VALID,104,VALID,0,VALID,23.1892,VALID,69,VALID,1.46289,
2012-07-26, 03:12:04,VALID,1010.45,VALID,0,VALID,104,VALID,0,VALID,23.1485,VALID,66,VALID,2.26836,
2012-07-26, 03:13:04,VALID,1010.46,VALID,0,VALID,104,VALID,0,VALID,23.1485,VALID,80,VALID,1.1832,
2012-07-26, 03:14:04,VALID,1010.48,VALID,0,VALID,104,VALID,0,VALID,23.1892,VALID,101,VALID,1.2,
2012-07-26, 03:15:04,VALID,1010.46,VALID,0,VALID,104,VALID,0.112112,VALID,23.1662,VALID,94,VALID,1.72266,
2012-07-26, 03:16:04,VALID,1010.49,VALID,0,VALID,104,VALID,0,VALID,23.1679,VALID,98,VALID,1.14297,
2012-07-26, 03:17:04,VALID,1010.51,VALID,0,VALID,104,VALID,0.112112,VALID,23.1679,VALID,100,VALID,1.29961,
2012-07-26, 03:18:04,VALID,1010.55,VALID,0,VALID,104,VALID,0,VALID,23.1874,VALID,87,VALID,1.21602,
2012-07-26, 03:19:04,VALID,1010.57,VALID,0,VALID,104,VALID,0.112112,VALID,23.1662,VALID,77,VALID,1.43203,
2012-07-26, 03:20:04,VALID,1010.55,VALID,0,VALID,104,VALID,0.112112,VALID,23.1662,VALID,96,VALID,0.834766,
2012-07-26, 03:21:04,VALID,1010.57,VALID,0,VALID,104,VALID,0,VALID,23.1857,VALID,94,VALID,1.21367,
2012-07-26, 03:22:04,VALID,1010.62,VALID,0,VALID,104,VALID,0.112112,VALID,23.1662,VALID,101,VALID,1.71055,
2012-07-26, 03:23:04,VALID,1010.61,VALID,0,VALID,104,VALID,0,VALID,23.1662,VALID,89,VALID,1.3707,
2012-07-26, 03:24:04,VALID,1010.63,VALID,0,VALID,104,VALID,0.112112,VALID,23.1662,VALID,89,VALID,1.59258,
2012-07-26, 03:25:04,VALID,1010.6,VALID,0,VALID,104,VALID,0,VALID,23.1874,VALID,99,VALID,2.38828,
2012-07-26, 03:26:04,VALID,1010.62,VALID,0,VALID,104,VALID,0,VALID,23.1662,VALID,78,VALID,1.5418,
2012-07-26, 03:27:04,VALID,1010.61,VALID,0,VALID,104,VALID,0.112112,VALID,23.1874,VALID,96,VALID,1.62305,
2012-07-26, 03:28:04,VALID,1010.63,VALID,0,VALID,104,VALID,0,VALID,23.2069,VALID,90,VALID,1.20977,
2012-07-26, 03:29:04,VALID,1010.62,VALID,0,VALID,104,VALID,0.112112,VALID,23.2069,VALID,122,VALID,0.785547,
2012-07-26, 03:30:04,VALID,1010.63,VALID,0,VALID,104,VALID,0.112112,VALID,23.1662,VALID,90,VALID,1.23281,
2012-07-26, 03:31:04,VALID,1010.64,VALID,0,VALID,104,VALID,0,VALID,23.2069,VALID,101,VALID,0.771875,
2012-07-26, 03:32:04,VALID,1010.63,VALID,0,VALID,104,VALID,0,VALID,23.1662,VALID,80,VALID,1.54219,
2012-07-26, 03:33:04,VALID,1010.65,VALID,0,VALID,104,VALID,0,VALID,23.1874,VALID,87,VALID,0.732422,
2012-07-26, 03:34:04,VALID,1010.65,VALID,0,VALID,104,VALID,0,VALID,23.1874,VALID,79,VALID,0.939844,
2012-07-26, 03:35:04,VALID,1010.67,VALID,0,VALID,104,VALID,0,VALID,23.1874,VALID,98,VALID,1.11172,
2012-07-26, 03:36:04,VALID,1010.67,VALID,0,VALID,104,VALID,0.112112,VALID,23.1874,VALID,82,VALID,1.23477,
2012-07-26, 03:37:04,VALID,1010.67,VALID,0,VALID,104,VALID,0,VALID,23.2069,VALID,94,VALID,0.903125,
2012-07-26, 03:38:04,VALID,1010.66,VALID,0,VALID,104,VALID,0.112112,VALID,23.1874,VALID,89,VALID,1.25547,
2012-07-26, 03:39:04,VALID,1010.69,VALID,0,VALID,104,VALID,0.112112,VALID,23.1662,VALID,67,VALID,2.13711,
2012-07-26, 03:40:04,VALID,1010.67,VALID,0,VALID,104,VALID,0.112112,VALID,23.1874,VALID,85,VALID,1.28789,
2012-07-26, 03:41:04,VALID,1010.67,VALID,0,VALID,104,VALID,0.112112,VALID,23.1662,VALID,115,VALID,0.974219,
2012-07-26, 03:42:04,VALID,1010.68,VALID,0,VALID,104,VALID,0.112112,VALID,23.1874,VALID,84,VALID,1.19844,
2012-07-26, 03:43:04,VALID,1010.69,VALID,0,VALID,104,VALID,0,VALID,23.1662,VALID,72,VALID,0.994922,
2012-07-26, 03:44:04,VALID,1010.66,VALID,0,VALID,104,VALID,0,VALID,23.1662,VALID,94,VALID,0.978516,
2012-07-26, 03:45:04,VALID,1010.65,VALID,0,VALID,104,VALID,0,VALID,23.1485,VALID,67,VALID,0.294531,
2012-07-26, 03:46:04,VALID,1010.66,VALID,0,VALID,104,VALID,0,VALID,23.1485,VALID,85,VALID,1.43945,
2012-07-26, 03:47:04,VALID,1010.65,VALID,0,VALID,104,VALID,0,VALID,23.1502,VALID,97,VALID,1.84141,
2012-07-26, 03:48:04,VALID,1010.68,VALID,0,VALID,104,VALID,0,VALID,23.1485,VALID,87,VALID,1.00312,
2012-07-26, 03:49:04,VALID,1010.64,VALID,0,VALID,104,VALID,0,VALID,23.1502,VALID,82,VALID,1.73555,
2012-07-26, 03:50:04,VALID,1010.63,VALID,0,VALID,104,VALID,0,VALID,23.1697,VALID,98,VALID,1.10078,
2012-07-26, 03:51:04,VALID,1010.63,VALID,0,VALID,104,VALID,0,VALID,23.1697,VALID,81,VALID,0.538281,
2012-07-26, 03:52:04,VALID,1010.64,VALID,0,VALID,104,VALID,0,VALID,23.1697,VALID,90,VALID,1.43555,